This is the latest recevied weather packets stored in our database for station/object KJ6LNH-1. If no packets are shown the sender has not sent any weather packets the latest 10 day(s).
| Time | Temp. | Humidity | Pressure | Rain* | Wind** | Luminosity | Snow |
|---|---|---|---|---|---|---|---|
| 1788138007 | 28.33° C | 29% | 1009.2 hPa | 0 mm | - | - | - |
| 1788137708 | 28.33° C | 30% | 1009.2 hPa | 0 mm | - | - | - |
| 1788137406 | 28.89° C | 30% | 1009.2 hPa | 0 mm | - | - | - |
| 1788137108 | 29.44° C | 29% | 1009.3 hPa | 0 mm | - | - | - |
| 1788136806 | 30° C | 27% | 1009.3 hPa | 0 mm | - | - | - |
| 1788136508 | 30° C | 25% | 1009.3 hPa | 0 mm | - | - | - |
| 1788136207 | 29.44° C | 24% | 1009.3 hPa | 0 mm | - | - | - |
| 1788135907 | 29.44° C | 29% | 1009.3 hPa | 0 mm | - | - | - |
| 1788135607 | 30° C | 29% | 1009.3 hPa | 0 mm | - | - | - |
| 1788135007 | 30.56° C | 27% | 1009.4 hPa | 0 mm | - | - | - |
| 1788134407 | 30.56° C | 28% | 1009.4 hPa | 0 mm | - | - | - |
| 1788134107 | 30.56° C | 27% | 1009.4 hPa | 0 mm | - | - | - |
| 1788133806 | 31.11° C | 27% | 1009.4 hPa | 0 mm | - | - | - |
| 1788133507 | 31.11° C | 27% | 1009.4 hPa | 0 mm | - | - | - |
| 1788133207 | 30.56° C | 28% | 1009.5 hPa | 0 mm | - | - | - |
| 1788132908 | 31.11° C | 27% | 1009.6 hPa | 0 mm | - | - | - |
| 1788132306 | 31.11° C | 28% | 1009.6 hPa | 0 mm | - | - | - |
| 1788132007 | 31.67° C | 27% | 1009.6 hPa | 0 mm | - | - | - |
| 1788131408 | 30.56° C | 27% | 1009.7 hPa | 0 mm | - | - | - |
| 1788130807 | 30° C | 30% | 1009.8 hPa | 0 mm | - | - | - |
| 1788130207 | 30.56° C | 32% | 1009.8 hPa | 0 mm | - | - | - |
| 1788129906 | 30.56° C | 30% | 1009.9 hPa | 0 mm | - | - | - |
| 1788129607 | 30.56° C | 33% | 1009.9 hPa | 0 mm | - | - | - |
| 1788128707 | 30.56° C | 34% | 1010.1 hPa | 0 mm | - | - | - |
| 1788128407 | 31.11° C | 34% | 1010 hPa | 0 mm | - | - | - |
* Rain latest hour (hover to see other rain measurements)
** Current wind speed in m/s (hover to see current wind gust speed)